Location: Hylvaty SDH
(49.9612°N, 16.4057°E)
Time: 22:35:18
(UTC+02:00)

A-11 Canister half - Pass Details

Date: 04 October 2020
Orbit: 1515 x 1685 km, 47.2° (Epoch: 20 October)

Event Time Altitude Azimuth Distance (km) Brightness Sun altitude
Exits shadow 06:09:16 10° 258° (WSW) 3,793 10.4 -8.9°
Reaches altitude 10° 06:09:22 10° 258° (WSW) 3,766 10.4 -8.9°
Maximum altitude 06:18:49 76° 175° (S) 1,579 9.1 -7.4°
Drops below altitude 10° 06:28:04 10° 92° (E) 3,679 12.9 -5.9°
Sets 06:31:04 0° 91° (E) 4,657 14.6 -5.4°
